SL-14 R/B (15945 NORAD) Tracking and Keplerian Element Data

This shows tracking and keplerian element data for the satellite.

Feedback or suggestion? Click here.




ElementValue
Catalog15945
NameSL-14 R/B
Epoch Orbit94818
Epoch Day15.94342253
Epoch Year2022
RAAN5.336
Inclination82.5277
Eccentricity0.0020329
Argument of Perigee153.5988
Mean Anonmoly206.6268
Mean Motion14.84123864
Decay Rate1.98E-06
L11 15945U 85069B 22015.94342253 .00000198 00000+0 20718-4 0 9993
L22 15945 82.5277 5.3360 0020329 153.5988 206.6268 14.84123864948180

Live tracking and technical data element details for SL-14 R/B (NORAD 15945). SL-14 R/B can be tracked NOW for your location showing map with azimuth and elevation plus other details from your city location.

Track the satellite on the map from your city or location and see movement details for azimuth, elevation, latitude, longitude, range, height, and movement on the map or in text.







IsCatalogInMostPopularTable: catalog: 15945, numindb: 251
Update: records affected: 1



GetName: 15945 SL-14 R/B

Hit Count: updated at: Mon, 17 Jan 2022 01:23:01 GMT